Tracking 19794 objects as of 21-Jul-2019
HD Live streaming from Space Station
objects crossing your sky now

FENGYUN 1C DEB

Track FENGYUN 1C DEB now!
10-day predictions


NORAD ID: 30636
Int'l Code: 1999-025ANT
Perigee: 522.9 km
Apogee: 603.8 km
Inclination: 98.7 °
Period: 95.8 minutes
Semi major axis: 6934 km
RCS: 0.0143 m2 (small)
Launch date: May 10, 1999
Source: People's Republic of China (PRC)
Launch site: Taiyaun Space Center, China (TSC)

Note: This is SATELLITE DEBRIS
aabbcc
Your satellite tracking list
Your tracking list is empty




NASA's NSSDC Master Catalog

Two Line Element Set (TLE):
1 30636U 99025ANT 19201.53058268  .00001693  00000-0  12563-3 0  9992
2 30636  98.7486 222.6233 0058300 176.1186 184.0501 15.03459735667154
Source of the keplerian elements: AFSPC